Victoria, British Columbia

12:18 AM PDT on April 27, 2018 (GMT -0700)
Victoria International

Weather History for CYYJ - April, 2013

Change the Weather History Date:

Tuesday, April 2, 2013

  Actual Average Record
Temperature  
Mean Temperature 47 °F -  
Max Temperature 54 °F 55 °F 62 °F (2004)
Min Temperature 40 °F 39 °F 30 °F (2007)
Degree Days  
Heating Degree Days 18    
Moisture  
Dew Point 42 °F    
Average Humidity 76    
Maximum Humidity 87    
Minimum Humidity 58    
Precipitation  
Precipitation 0.00 in 0.05 in - ()
Sea Level Pressure  
Sea Level Pressure 30.18 in    
Wind  
Wind Speed 5 mph ()    
Max Wind Speed 14 mph    
Max Gust Speed -    
Visibility 18.7 miles    
Events      
Averages and records for this station are not official NWS values.
T = Trace of Precipitation, MM = Missing Value Source: Averaged Metar Reports

Daily Weather History Graph

Daily Weather History Graph

Search for Another Location

Airport or City:

Astronomy

Apr. 02, 2013 Rise Set
Actual Time 6:48 AM PDT 7:46 PM PDT
Civil Twilight 6:16 AM PDT 8:18 PM PDT
Nautical Twilight 5:38 AM PDT 8:57 PM PDT
Astronomical Twilight 4:57 AM PDT 9:37 PM PDT
Moon 2:16 AM PDT (4/2) 11:26 AM PDT (4/2)
Length of Visible Light 14h 01m
Length of Day
12h 57m
Waning Gibbous, 55% of the Moon is Illuminated
Apr 2
Waning Gibbous
Apr 2
Last Quarter
Apr 10
New
Apr 18
First Quarter
Apr 25
Full

Hourly Weather History & Observations

Time (PDT) Temp. Windchill Dew Point Humidity Pressure Visibility Wind Dir Wind Speed Gust Speed Precip Events Conditions
12:00 AM 44.6 °F 43.1 °F 41.0 °F 87% 30.12 in 30.0 mi WSW 3.5 mph - N/A   Partly Cloudy
1:00 AM 44.6 °F 40.7 °F 41.0 °F 87% 30.14 in 30.0 mi WNW 6.9 mph - N/A   Partly Cloudy
2:00 AM 44.6 °F 40.7 °F 41.0 °F 87% 30.16 in 30.0 mi WSW 6.9 mph - N/A   Partly Cloudy
3:00 AM 42.8 °F 41.1 °F 39.2 °F 87% 30.16 in 15.0 mi West 3.5 mph - N/A   Partly Cloudy
4:00 AM 42.8 °F - 37.4 °F 81% 30.17 in 15.0 mi SSW 2.3 mph - N/A   Mostly Cloudy
5:00 AM 44 °F - 40 °F 79% 30.18 in 15 mi SW 2.3 mph - -   Mostly Cloudy
5:00 AM 44.6 °F - 39.2 °F 81% 30.18 in 15.0 mi SW 2.3 mph - N/A   Mostly Cloudy
6:00 AM 41.0 °F 39.0 °F 37.4 °F 87% 30.17 in 15.0 mi SW 3.5 mph - N/A   Mostly Cloudy
7:00 AM 44.6 °F - 41.0 °F 87% 30.18 in 20.0 mi Calm Calm - N/A   Mostly Cloudy
8:00 AM 46.4 °F - 42.8 °F 87% 30.19 in 20.0 mi Calm Calm - N/A   Mostly Cloudy
9:00 AM 48.2 °F - 41.0 °F 76% 30.19 in 20.0 mi SW 2.3 mph - N/A   Mostly Cloudy
10:00 AM 48.2 °F - 41.0 °F 76% 30.20 in 20.0 mi SE 3.5 mph - N/A   Mostly Cloudy
11:00 AM 50 °F - 42 °F 66% 30.20 in 19 mi ESE 5.8 mph - -   Mostly Cloudy
11:00 AM 50.0 °F - 42.8 °F 76% 30.20 in 20.0 mi ESE 5.8 mph - N/A   Mostly Cloudy
12:00 PM 51.8 °F - 42.8 °F 71% 30.20 in 20.0 mi ESE 8.1 mph - N/A   Mostly Cloudy
1:00 PM 53.6 °F - 41.0 °F 62% 30.20 in 20.0 mi SE 11.5 mph - N/A   Scattered Clouds
2:00 PM 53.6 °F - 39.2 °F 58% 30.20 in 20.0 mi SE 9.2 mph - N/A   Mostly Cloudy
3:00 PM 53.6 °F - 41.0 °F 62% 30.19 in 20.0 mi SE 11.5 mph - N/A   Mostly Cloudy
4:00 PM 53.6 °F - 42.8 °F 67% 30.19 in 20.0 mi SE 13.8 mph - N/A   Mostly Cloudy
5:00 PM 53 °F - 43 °F 58% 30.18 in 19 mi SE 10.4 mph - -   Mostly Cloudy
5:00 PM 53.6 °F - 42.8 °F 67% 30.18 in 20.0 mi SE 10.4 mph - N/A   Mostly Cloudy
6:00 PM 51.8 °F - 42.8 °F 71% 30.18 in 20.0 mi SE 10.4 mph - N/A   Mostly Cloudy
7:00 PM 50.0 °F - 42.8 °F 76% 30.18 in 20.0 mi SE 10.4 mph - N/A   Overcast
8:00 PM 51.8 °F - 42.8 °F 71% 30.17 in 20.0 mi SE 3.5 mph - N/A   Mostly Cloudy
9:00 PM 50.0 °F - 44.6 °F 82% 30.19 in 30.0 mi Calm Calm - N/A   Mostly Cloudy
10:00 PM 50.0 °F - 44.6 °F 82% 30.20 in 30.0 mi WNW 5.8 mph - N/A   Mostly Cloudy
11:00 PM 50 °F - 44 °F 72% 30.19 in 28 mi WNW 5.8 mph - -   Mostly Cloudy
11:00 PM 50.0 °F - 44.6 °F 82% 30.19 in 30.0 mi WNW 5.8 mph - N/A   Mostly Cloudy